EW2817 Weather Reports


time (UTC)temp
F
wind
direction
speed
knots
gust
knots
rain 1hr
in
rain 24hr
in
rain mn
in
humidity
%
barometer
mb
20260903183835 101 0 0.0 0.0 0.00 0.00 0.00 42 993.3
20260903182331 99 0 0.0 0.0 0.00 0.00 0.00 44 993.4
20260903181518 99 0 0.0 0.0 0.00 0.00 0.00 48 993.5
20260903175329 99 0 0.0 0.0 0.00 0.00 0.00 46 993.7
20260903173829 100 0 0.0 0.0 0.00 0.00 0.00 49 993.7
20260903172328 99 0 0.0 0.0 0.00 0.00 0.00 47 994.0
20260903170826 100 0 0.0 0.0 0.00 0.00 0.00 52 994.0
20260903170010 99 0 0.0 0.0 0.00 0.00 0.00 52 994.3
20260903163820 98 0 0.0 0.0 0.00 0.00 0.00 58 994.3
20260903162319 96 0 0.0 0.0 0.00 0.00 0.00 57 994.4
20260903162231 97 0 0.0 0.0 0.00 0.00 0.00 58 994.6
20260903155319 95 0 0.0 0.0 0.00 0.00 0.00 58 994.7
20260903153817 94 0 0.0 0.0 0.00 0.00 0.00 64 994.8
20260903152316 93 0 0.0 0.0 0.00 0.00 0.00 66 994.8
20260903150812 92 0 0.0 0.0 0.00 0.00 0.00 71 994.8
20260903145313 90 0 0.0 0.0 0.00 0.00 0.00 73 994.8
20260903143812 89 0 0.0 0.0 0.00 0.00 0.00 75 994.8
20260903142310 87 0 0.0 0.0 0.00 0.00 0.00 80 994.8
20260903140807 85 0 0.0 0.0 0.00 0.00 0.00 83 994.8
20260903135306 82 0 0.0 0.0 0.00 0.00 0.00 90 994.7
20260903133807 79 0 0.0 0.0 0.00 0.00 0.00 93 994.6
20260903132952 78 0 0.0 0.0 0.00 0.00 0.00 93 994.6
20260903130804 77 0 0.0 0.0 0.00 0.00 0.00 94 994.6
20260903125305 77 0 0.0 0.0 0.00 0.00 0.00 94 994.7
20260903123802 76 0 0.0 0.0 0.00 0.00 0.00 93 994.7
20260903122305 76 0 0.0 0.0 0.00 0.00 0.00 94 994.7
20260903120800 76 0 0.0 0.0 0.00 0.00 0.00 93 994.7
20260903115300 75 0 0.0 0.0 0.00 0.00 0.00 93 994.7
20260903114500 75 0 0.0 0.0 0.00 0.00 0.00 93 994.6
20260903112301 75 0 0.0 0.0 0.00 0.00 0.00 93 994.4
20260903110758 75 0 0.0 0.0 0.00 0.00 0.00 93 994.3
20260903105258 75 0 0.0 0.0 0.00 0.00 0.00 92 994.0
20260903103759 75 0 0.0 0.0 0.00 0.00 0.00 92 993.9
20260903102258 75 0 0.0 0.0 0.00 0.00 0.00 92 993.8
20260903100756 75 0 0.0 0.0 0.00 0.00 0.00 92 993.7
20260903095254 76 0 0.0 0.0 0.00 0.00 0.00 91 993.7
20260903093752 76 0 0.0 0.0 0.00 0.00 0.00 91 993.7
20260903092246 76 0 0.0 0.0 0.00 0.00 0.00 91 993.6
20260903090744 76 0 0.0 0.0 0.00 0.00 0.00 91 993.7
20260903085244 76 0 0.0 0.0 0.00 0.00 0.00 91 993.6
20260903083744 76 0 0.0 0.0 0.00 0.00 0.00 91 993.5
20260903082241 76 0 0.0 0.0 0.00 0.00 0.00 92 993.3
20260903080742 76 0 0.0 0.0 0.00 0.00 0.00 92 993.3
20260903075242 76 0 0.0 0.0 0.00 0.00 0.00 91 993.4
20260903073741 77 0 0.0 0.0 0.00 0.00 0.00 90 993.2
20260903072241 77 0 0.0 0.0 0.00 0.00 0.00 89 993.2
20260903070741 77 0 0.0 0.0 0.00 0.00 0.00 89 993.2
20260903065242 77 0 0.0 0.0 0.00 0.00 0.00 89 993.3
20260903063742 77 0 0.0 0.0 0.00 0.00 0.00 89 993.4
20260903062242 78 0 0.0 0.0 0.00 0.00 0.00 89 993.6
20260903060742 78 0 0.0 0.0 0.00 0.00 0.00 87 993.6
20260903055242 79 0 0.0 0.0 0.00 0.00 0.00 86 993.7
20260903053739 79 0 0.0 0.0 0.00 0.00 0.00 86 993.8
20260903052239 79 0 0.0 0.0 0.00 0.00 0.00 87 993.8
20260903050740 79 0 0.0 0.0 0.00 0.00 0.00 86 993.8
20260903045239 80 0 0.0 0.0 0.00 0.00 0.00 85 993.7
20260903043737 80 0 0.0 0.0 0.00 0.00 0.00 85 993.7
20260903042235 80 0 0.0 0.0 0.00 0.00 0.00 84 993.6
20260903040736 81 0 0.0 0.0 0.00 0.00 0.00 84 993.8
20260903040636 81 0 0.0 0.0 0.00 0.00 0.00 84 993.9
20260903033732 81 0 0.0 0.0 0.00 0.00 0.00 84 993.9
20260903032231 82 0 0.0 0.0 0.00 0.00 0.00 82 993.8
20260903030730 82 0 0.0 0.0 0.00 0.00 0.00 81 993.8
20260903025230 82 0 0.0 0.0 0.00 0.00 0.00 81 993.8
20260903023730 83 0 0.0 0.0 0.00 0.00 0.00 80 993.9
20260903022231 83 0 0.0 0.0 0.00 0.00 0.00 80 994.0
20260903020731 84 0 0.0 0.0 0.00 0.00 0.00 77 993.9
20260903015230 84 0 0.0 0.0 0.00 0.00 0.00 77 994.1
20260903013729 84 0 0.0 0.0 0.00 0.00 0.00 76 994.1
20260903012228 84 0 0.0 0.0 0.00 0.00 0.00 75 994.4
20260903010728 84 0 0.0 0.0 0.00 0.00 0.00 75 993.9
20260903005226 84 0 0.0 0.0 0.00 0.00 0.00 74 993.9
20260903003724 85 0 0.0 0.0 0.00 0.00 0.00 76 993.7
20260903002937 85 0 0.0 0.0 0.00 0.00 0.00 75 993.6
20260903001429 86 0 0.0 0.0 0.00 0.00 0.00 73 993.4
20260902235224 86 0 0.0 0.0 0.00 0.00 0.00 73 993.3
20260902233725 87 0 0.0 0.0 0.00 0.00 0.00 72 993.4
20260902232224 87 0 0.0 0.0 0.00 0.00 0.00 74 993.6
20260902230722 88 0 0.0 0.0 0.00 0.00 0.00 74 993.5
20260902225223 89 0 0.0 0.0 0.00 0.00 0.00 73 993.4
20260902223718 89 0 0.0 0.0 0.00 0.00 0.00 72 993.4
20260902222218 90 0 0.0 0.0 0.00 0.00 0.00 69 993.2
20260902220715 91 0 0.0 0.0 0.00 0.00 0.00 66 993.2
20260902215214 92 0 0.0 0.0 0.00 0.00 0.00 63 993.2
20260902214417 92 0 0.0 0.0 0.00 0.00 0.00 61 993.4
20260902212212 93 0 0.0 0.0 0.00 0.00 0.00 60 993.4
20260902210709 94 0 0.0 0.0 0.00 0.00 0.00 58 993.5
20260902205207 94 0 0.0 0.0 0.00 0.00 0.00 54 993.5
20260902203707 94 0 0.0 0.0 0.00 0.00 0.00 50 993.4
20260902202859 94 0 0.0 0.0 0.00 0.00 0.00 54 993.6
20260902200708 95 0 0.0 0.0 0.00 0.00 0.00 53 993.8
20260902195208 96 0 0.0 0.0 0.00 0.00 0.00 56 993.8
20260902194406 96 0 0.0 0.0 0.00 0.00 0.00 48 994.0
20260902192206 97 0 0.0 0.0 0.00 0.00 0.00 53 994.1
20260902190703 97 0 0.0 0.0 0.00 0.00 0.00 48 994.3
20260902185203 97 0 0.0 0.0 0.00 0.00 0.00 49 994.4